Location: Recife
(8.0585°S, 34.8848°W)
Time: 11:09:49
(UTC-03:00)

Vanguard 1 - Pass Details

Date: 18 April 2026
Orbit: 654 x 3817 km, 34.2° (Epoch: 14 May)

Event Time Altitude Azimuth Distance (km) Brightness Sun altitude
Rises 17:20:32 0° 232° (SW) 4,632 14.2 -2.0°
Reaches altitude 10° 17:23:01 10° 230° (SW) 3,948 13.8 -2.6°
Maximum altitude 17:34:19 81° 143° (SE) 2,554 12.1 -5.3°
Drops below altitude 10° 17:54:54 10° 56° (ENE) 6,664 13.9 -10.3°
Sets 18:00:36 0° 56° (NE) 7,873 14.2 -11.7°
